contact:dominique.lefevre@mio.osupytheas.fr, maurice.libes@osupytheas.fr, didier.mallarino@osupytheas.fr
Project:EMSO http://www.emso-fr.org/EMSO-France
Depth: 2436.0 m
Title:EMSO Ligure Ouest : Data MII capteur MICROCAT
DateTime_Computer,Latitude,Longitude,Temperature,Conductivity,Pressure,DateTime_Instrument
DateTime_Computer,Latitude,Longitude,degC,S m-1,dbar,DateTime_Instrument
2020-03-16T00:01:46Z,42.805,6.029,13.2987,4.59991,2470.11,2020-3-16T02:02:23Z
2020-03-16T00:04:49Z,42.805,6.029,13.2991,4.59991,2470.124,2020-3-16T02:05:26Z
2020-03-16T00:07:52Z,42.805,6.029,13.2991,4.59991,2470.124,2020-3-16T02:08:30Z
2020-03-16T00:10:56Z,42.805,6.029,13.2996,4.59996,2470.124,2020-3-16T02:11:33Z
2020-03-16T00:13:59Z,42.805,6.029,13.2987,4.59997,2470.133,2020-3-16T02:14:36Z
2020-03-16T00:17:02Z,42.805,6.029,13.2975,4.59986,2470.11,2020-3-16T02:17:39Z
2020-03-16T00:20:05Z,42.805,6.029,13.2991,4.59979,2470.124,2020-3-16T02:20:42Z
2020-03-16T00:23:08Z,42.805,6.029,13.2983,4.59994,2470.147,2020-3-16T02:23:46Z
2020-03-16T00:26:12Z,42.805,6.029,13.2982,4.59991,2470.124,2020-3-16T02:26:49Z
2020-03-16T00:29:15Z,42.805,6.029,13.2984,4.59990,2470.11,2020-3-16T02:29:53Z
2020-03-16T00:32:19Z,42.805,6.029,13.2989,4.59973,2470.1,2020-3-16T02:32:56Z
2020-03-16T00:35:22Z,42.805,6.029,13.2975,4.59971,2470.11,2020-3-16T02:35:59Z
2020-03-16T00:38:25Z,42.805,6.029,13.2970,4.59968,2470.147,2020-3-16T02:39:02Z
2020-03-16T00:41:28Z,42.805,6.029,13.2982,4.59995,2470.087,2020-3-16T02:42:05Z
2020-03-16T00:44:31Z,42.805,6.029,13.2970,4.59970,2470.133,2020-3-16T02:45:09Z
2020-03-16T00:47:35Z,42.805,6.029,13.2968,4.59973,2470.133,2020-3-16T02:48:12Z
2020-03-16T00:50:38Z,42.805,6.029,13.2976,4.59973,2470.11,2020-3-16T02:51:15Z
2020-03-16T00:53:41Z,42.805,6.029,13.2976,4.59978,2470.11,2020-3-16T02:54:18Z
2020-03-16T00:56:44Z,42.805,6.029,13.2978,4.59968,2470.147,2020-3-16T02:57:22Z
2020-03-16T00:59:48Z,42.805,6.029,13.2972,4.59968,2470.124,2020-3-16T03:00:25Z
2020-03-16T01:02:51Z,42.805,6.029,13.2985,4.59985,2470.11,2020-3-16T03:03:28Z
2020-03-16T01:05:55Z,42.805,6.029,13.2976,4.59970,2470.11,2020-3-16T03:06:32Z
2020-03-16T01:08:58Z,42.805,6.029,13.2975,4.59969,2470.087,2020-3-16T03:09:35Z
2020-03-16T01:12:01Z,42.805,6.029,13.2966,4.59976,2470.147,2020-3-16T03:12:38Z
2020-03-16T01:15:04Z,42.805,6.029,13.2979,4.59979,2470.147,2020-3-16T03:15:41Z
2020-03-16T01:18:07Z,42.805,6.029,13.2999,4.59990,2470.11,2020-3-16T03:18:45Z
2020-03-16T01:21:11Z,42.805,6.029,13.2971,4.59981,2470.156,2020-3-16T03:21:48Z
2020-03-16T01:24:14Z,42.805,6.029,13.2968,4.59968,2470.11,2020-3-16T03:24:51Z
2020-03-16T01:27:17Z,42.805,6.029,13.2985,4.59983,2470.11,2020-3-16T03:27:54Z
2020-03-16T01:30:20Z,42.805,6.029,13.2993,4.59984,2470.11,2020-3-16T03:30:58Z
2020-03-16T01:33:24Z,42.805,6.029,13.2974,4.59973,2470.087,2020-3-16T03:34:01Z
2020-03-16T01:36:27Z,42.805,6.029,13.2974,4.59968,2470.133,2020-3-16T03:37:04Z
2020-03-16T01:39:30Z,42.805,6.029,13.2970,4.59968,2470.11,2020-3-16T03:40:07Z
2020-03-16T01:42:33Z,42.805,6.029,13.2974,4.59970,2470.124,2020-3-16T03:43:11Z
2020-03-16T01:45:37Z,42.805,6.029,13.2983,4.59984,2470.11,2020-3-16T03:46:14Z
2020-03-16T01:48:40Z,42.805,6.029,13.2989,4.59973,2470.124,2020-3-16T03:49:17Z
2020-03-16T01:51:43Z,42.805,6.029,13.2969,4.59969,2470.087,2020-3-16T03:52:21Z
2020-03-16T01:54:47Z,42.805,6.029,13.2972,4.59968,2470.087,2020-3-16T03:55:24Z
2020-03-16T01:57:50Z,42.805,6.029,13.2968,4.59967,2470.11,2020-3-16T03:58:27Z
2020-03-16T02:00:53Z,42.805,6.029,13.2970,4.59968,2470.11,2020-3-16T04:01:30Z
2020-03-16T02:03:56Z,42.805,6.029,13.2974,4.59987,2470.1,2020-3-16T04:04:33Z
2020-03-16T02:07:00Z,42.805,6.029,13.2975,4.59982,2470.1,2020-3-16T04:07:37Z
2020-03-16T02:10:03Z,42.805,6.029,13.2971,4.59970,2470.147,2020-3-16T04:10:40Z
2020-03-16T02:13:06Z,42.805,6.029,13.2984,4.59983,2470.087,2020-3-16T04:13:43Z
2020-03-16T02:16:09Z,42.805,6.029,13.2982,4.59992,2470.087,2020-3-16T04:16:47Z
2020-03-16T02:19:13Z,42.805,6.029,13.2984,4.59983,2470.11,2020-3-16T04:19:50Z
2020-03-16T02:22:16Z,42.805,6.029,13.2972,4.59972,2470.11,2020-3-16T04:22:53Z
2020-03-16T02:25:19Z,42.805,6.029,13.2969,4.59977,2470.11,2020-3-16T04:25:56Z
2020-03-16T02:28:22Z,42.805,6.029,13.2976,4.59975,2470.063,2020-3-16T04:28:59Z
2020-03-16T02:31:26Z,42.805,6.029,13.2967,4.59968,2470.087,2020-3-16T04:32:03Z
2020-03-16T02:34:29Z,42.805,6.029,13.2974,4.59968,2470.11,2020-3-16T04:35:06Z
2020-03-16T02:37:32Z,42.805,6.029,13.2979,4.59984,2470.077,2020-3-16T04:38:09Z
2020-03-16T02:40:35Z,42.805,6.029,13.2975,4.59974,2470.133,2020-3-16T04:41:12Z
2020-03-16T02:43:39Z,42.805,6.029,13.2971,4.59973,2470.11,2020-3-16T04:44:16Z
2020-03-16T02:46:42Z,42.805,6.029,13.2979,4.59973,2470.133,2020-3-16T04:47:19Z
2020-03-16T02:49:45Z,42.805,6.029,13.2982,4.59988,2470.11,2020-3-16T04:50:22Z
2020-03-16T02:52:48Z,42.805,6.029,13.2967,4.59973,2470.147,2020-3-16T04:53:25Z
2020-03-16T02:55:51Z,42.805,6.029,13.2989,4.59975,2470.11,2020-3-16T04:56:29Z
2020-03-16T02:58:55Z,42.805,6.029,13.2982,4.59996,2470.11,2020-3-16T04:59:32Z
2020-03-16T03:01:58Z,42.805,6.029,13.2970,4.59971,2470.1,2020-3-16T05:02:35Z
2020-03-16T03:05:01Z,42.805,6.029,13.2971,4.59973,2470.087,2020-3-16T05:05:38Z
2020-03-16T03:08:05Z,42.805,6.029,13.2978,4.59976,2470.133,2020-3-16T05:08:42Z
2020-03-16T03:11:08Z,42.805,6.029,13.2990,4.59984,2470.124,2020-3-16T05:11:45Z
2020-03-16T03:14:11Z,42.805,6.029,13.2988,4.59988,2470.087,2020-3-16T05:14:48Z
2020-03-16T03:17:14Z,42.805,6.029,13.2975,4.59971,2470.087,2020-3-16T05:17:51Z
2020-03-16T03:20:17Z,42.805,6.029,13.2974,4.59969,2470.124,2020-3-16T05:20:55Z
2020-03-16T03:23:21Z,42.805,6.029,13.2970,4.59969,2470.11,2020-3-16T05:23:58Z
2020-03-16T03:26:24Z,42.805,6.029,13.2986,4.59989,2470.119,2020-3-16T05:27:01Z
2020-03-16T03:29:27Z,42.805,6.029,13.2979,4.59984,2470.087,2020-3-16T05:30:05Z
2020-03-16T03:32:31Z,42.805,6.029,13.2987,4.60001,2470.11,2020-3-16T05:33:08Z
2020-03-16T03:35:34Z,42.805,6.029,13.2980,4.59998,2470.077,2020-3-16T05:36:11Z
2020-03-16T03:38:37Z,42.805,6.029,13.2974,4.59978,2470.063,2020-3-16T05:39:14Z
2020-03-16T03:41:40Z,42.805,6.029,13.2975,4.59980,2470.087,2020-3-16T05:42:18Z
2020-03-16T03:44:44Z,42.805,6.029,13.2969,4.59974,2470.124,2020-3-16T05:45:21Z
2020-03-16T03:47:47Z,42.805,6.029,13.2972,4.59972,2470.1,2020-3-16T05:48:24Z
2020-03-16T03:50:50Z,42.805,6.029,13.2982,4.60001,2470.087,2020-3-16T05:51:28Z
2020-03-16T03:53:54Z,42.805,6.029,13.2977,4.60006,2470.063,2020-3-16T05:54:31Z
2020-03-16T03:56:57Z,42.805,6.029,13.2993,4.59998,2470.124,2020-3-16T05:57:34Z
2020-03-16T04:00:00Z,42.805,6.029,13.2977,4.59990,2470.04,2020-3-16T06:00:38Z
2020-03-16T04:03:04Z,42.805,6.029,13.2975,4.59986,2470.087,2020-3-16T06:03:41Z
2020-03-16T04:06:07Z,42.805,6.029,13.2975,4.59996,2470.087,2020-3-16T06:06:44Z
2020-03-16T04:09:10Z,42.805,6.029,13.2986,4.59976,2470.077,2020-3-16T06:09:47Z
2020-03-16T04:12:14Z,42.805,6.029,13.2986,4.59981,2470.087,2020-3-16T06:12:51Z
2020-03-16T04:15:17Z,42.805,6.029,13.2977,4.59986,2470.087,2020-3-16T06:15:54Z
2020-03-16T04:18:20Z,42.805,6.029,13.2978,4.59997,2470.087,2020-3-16T06:18:57Z
2020-03-16T04:21:23Z,42.805,6.029,13.2974,4.59984,2470.11,2020-3-16T06:22:01Z
2020-03-16T04:24:27Z,42.805,6.029,13.2979,4.59976,2470.087,2020-3-16T06:25:04Z
2020-03-16T04:27:30Z,42.805,6.029,13.2976,4.59986,2470.124,2020-3-16T06:28:07Z
2020-03-16T04:30:33Z,42.805,6.029,13.2971,4.59978,2470.087,2020-3-16T06:31:10Z
2020-03-16T04:33:36Z,42.805,6.029,13.2974,4.59974,2470.11,2020-3-16T06:34:14Z
2020-03-16T04:36:40Z,42.805,6.029,13.2973,4.59977,2470.053,2020-3-16T06:37:17Z
2020-03-16T04:39:43Z,42.805,6.029,13.2979,4.59985,2470.1,2020-3-16T06:40:20Z
2020-03-16T04:42:46Z,42.805,6.029,13.2982,4.59989,2470.1,2020-3-16T06:43:23Z
2020-03-16T04:45:49Z,42.805,6.029,13.2984,4.59982,2470.087,2020-3-16T06:46:27Z
2020-03-16T04:48:53Z,42.805,6.029,13.2976,4.59996,2470.077,2020-3-16T06:49:30Z
2020-03-16T04:51:56Z,42.805,6.029,13.2979,4.59985,2470.087,2020-3-16T06:52:33Z
2020-03-16T04:54:59Z,42.805,6.029,13.2972,4.59986,2470.11,2020-3-16T06:55:36Z
2020-03-16T04:58:02Z,42.805,6.029,13.2987,4.59991,2470.11,2020-3-16T06:58:39Z
2020-03-16T05:01:05Z,42.805,6.029,13.2971,4.59976,2470.087,2020-3-16T07:01:43Z
2020-03-16T05:04:09Z,42.805,6.029,13.2984,4.59989,2470.087,2020-3-16T07:04:46Z
2020-03-16T05:07:12Z,42.805,6.029,13.2981,4.59991,2470.124,2020-3-16T07:07:49Z
2020-03-16T05:10:15Z,42.805,6.029,13.2983,4.60001,2470.087,2020-3-16T07:10:52Z
2020-03-16T05:13:18Z,42.805,6.029,13.2986,4.59991,2470.087,2020-3-16T07:13:56Z
2020-03-16T05:16:22Z,42.805,6.029,13.2985,4.60017,2470.1,2020-3-16T07:16:59Z
2020-03-16T05:19:25Z,42.805,6.029,13.2988,4.59988,2470.1,2020-3-16T07:20:02Z
2020-03-16T05:22:28Z,42.805,6.029,13.2985,4.59980,2470.063,2020-3-16T07:23:06Z
2020-03-16T05:25:32Z,42.805,6.029,13.2984,4.60002,2470.063,2020-3-16T07:26:09Z
2020-03-16T05:28:35Z,42.805,6.029,13.2983,4.59994,2470.04,2020-3-16T07:29:12Z
2020-03-16T05:31:38Z,42.805,6.029,13.2975,4.60003,2470.077,2020-3-16T07:32:16Z
2020-03-16T05:34:42Z,42.805,6.029,13.2979,4.60009,2470.053,2020-3-16T07:35:19Z
2020-03-16T05:37:45Z,42.805,6.029,13.2980,4.59996,2470.077,2020-3-16T07:38:22Z
2020-03-16T05:40:48Z,42.805,6.029,13.2982,4.60003,2470.087,2020-3-16T07:41:25Z
2020-03-16T05:43:51Z,42.805,6.029,13.2989,4.60001,2470.1,2020-3-16T07:44:29Z
2020-03-16T05:46:55Z,42.805,6.029,13.2982,4.60003,2470.087,2020-3-16T07:47:32Z
2020-03-16T05:49:58Z,42.805,6.029,13.2984,4.60006,2470.1,2020-3-16T07:50:35Z
2020-03-16T05:53:01Z,42.805,6.029,13.2977,4.60011,2470.063,2020-3-16T07:53:38Z
2020-03-16T05:56:04Z,42.805,6.029,13.2990,4.59976,2470.1,2020-3-16T07:56:42Z
2020-03-16T05:59:08Z,42.805,6.029,13.2976,4.59997,2470.087,2020-3-16T07:59:45Z
2020-03-16T06:02:11Z,42.805,6.029,13.2974,4.59999,2470.063,2020-3-16T08:02:48Z
2020-03-16T06:05:14Z,42.805,6.029,13.2983,4.60004,2470.077,2020-3-16T08:05:51Z
2020-03-16T06:08:17Z,42.805,6.029,13.2982,4.59994,2470.087,2020-3-16T08:08:54Z
2020-03-16T06:11:20Z,42.805,6.029,13.2981,4.60003,2470.124,2020-3-16T08:11:58Z
2020-03-16T06:14:24Z,42.805,6.029,13.2981,4.60001,2470.087,2020-3-16T08:15:01Z
2020-03-16T06:17:27Z,42.805,6.029,13.2974,4.59991,2470.077,2020-3-16T08:18:04Z
2020-03-16T06:20:30Z,42.805,6.029,13.2974,4.59989,2470.063,2020-3-16T08:21:08Z
2020-03-16T06:23:34Z,42.805,6.029,13.2982,4.60004,2470.063,2020-3-16T08:24:11Z
2020-03-16T06:26:37Z,42.805,6.029,13.2979,4.59998,2470.063,2020-3-16T08:27:14Z
2020-03-16T06:29:40Z,42.805,6.029,13.2972,4.59991,2470.063,2020-3-16T08:30:17Z
2020-03-16T06:32:43Z,42.805,6.029,13.2974,4.59999,2470.053,2020-3-16T08:33:21Z
2020-03-16T06:35:47Z,42.805,6.029,13.2973,4.59995,2470.063,2020-3-16T08:36:24Z
2020-03-16T06:38:50Z,42.805,6.029,13.2973,4.59988,2470.04,2020-3-16T08:39:27Z
2020-03-16T06:41:53Z,42.805,6.029,13.2968,4.59985,2470.077,2020-3-16T08:42:30Z
2020-03-16T06:44:56Z,42.805,6.029,13.2978,4.60001,2470.063,2020-3-16T08:45:34Z
2020-03-16T06:48:00Z,42.805,6.029,13.2977,4.59999,2470.063,2020-3-16T08:48:37Z
2020-03-16T06:51:03Z,42.805,6.029,13.2976,4.59983,2470.063,2020-3-16T08:51:40Z
2020-03-16T06:54:06Z,42.805,6.029,13.2974,4.59986,2470.063,2020-3-16T08:54:43Z
2020-03-16T06:57:10Z,42.805,6.029,13.2976,4.59991,2470.04,2020-3-16T08:57:47Z
2020-03-16T07:00:13Z,42.805,6.029,13.2982,4.60001,2470.053,2020-3-16T09:00:50Z
2020-03-16T07:03:16Z,42.805,6.029,13.2971,4.59991,2470.04,2020-3-16T09:03:53Z
2020-03-16T07:06:19Z,42.805,6.029,13.2972,4.59995,2470.053,2020-3-16T09:06:57Z
2020-03-16T07:09:23Z,42.805,6.029,13.2972,4.59996,2470.017,2020-3-16T09:10:00Z
2020-03-16T07:12:26Z,42.805,6.029,13.2974,4.60003,2470.026,2020-3-16T09:13:03Z
2020-03-16T07:15:29Z,42.805,6.029,13.2978,4.60011,2470.017,2020-3-16T09:16:06Z
2020-03-16T07:18:32Z,42.805,6.029,13.2980,4.60005,2470.04,2020-3-16T09:19:09Z
2020-03-16T07:21:35Z,42.805,6.029,13.2976,4.60001,2470.053,2020-3-16T09:22:13Z
2020-03-16T07:24:39Z,42.805,6.029,13.2982,4.60008,2470.053,2020-3-16T09:25:16Z
2020-03-16T07:27:42Z,42.805,6.029,13.2976,4.59998,2470.077,2020-3-16T09:28:19Z
2020-03-16T07:30:45Z,42.805,6.029,13.2972,4.59991,2470.077,2020-3-16T09:31:23Z
2020-03-16T07:33:49Z,42.805,6.029,13.2979,4.59999,2470.087,2020-3-16T09:34:26Z
2020-03-16T07:36:52Z,42.805,6.029,13.2974,4.59992,2470.053,2020-3-16T09:37:29Z
2020-03-16T07:39:55Z,42.805,6.029,13.2973,4.59997,2470.063,2020-3-16T09:40:32Z
2020-03-16T07:42:58Z,42.805,6.029,13.2976,4.60007,2470.04,2020-3-16T09:43:35Z
2020-03-16T07:46:01Z,42.805,6.029,13.2976,4.60006,2470.017,2020-3-16T09:46:39Z
2020-03-16T07:49:05Z,42.805,6.029,13.2986,4.60003,2470.03,2020-3-16T09:49:42Z
2020-03-16T07:52:08Z,42.805,6.029,13.2977,4.60013,2470.063,2020-3-16T09:52:45Z
2020-03-16T07:55:11Z,42.805,6.029,13.2977,4.59989,2470.04,2020-3-16T09:55:48Z
2020-03-16T07:58:14Z,42.805,6.029,13.2972,4.59997,2470.077,2020-3-16T09:58:52Z
2020-03-16T08:01:18Z,42.805,6.029,13.2984,4.59987,2470.087,2020-3-16T10:01:55Z
2020-03-16T08:04:21Z,42.805,6.029,13.2972,4.59996,2470.087,2020-3-16T10:04:58Z
2020-03-16T08:07:24Z,42.805,6.029,13.2974,4.60003,2470.063,2020-3-16T10:08:01Z
2020-03-16T08:10:27Z,42.805,6.029,13.2971,4.59995,2470.087,2020-3-16T10:11:05Z
2020-03-16T08:13:31Z,42.805,6.029,13.2975,4.59992,2470.087,2020-3-16T10:14:08Z
2020-03-16T08:16:34Z,42.805,6.029,13.2977,4.59991,2470.063,2020-3-16T10:17:11Z
2020-03-16T08:19:37Z,42.805,6.029,13.2979,4.59991,2470.063,2020-3-16T10:20:14Z
2020-03-16T08:22:40Z,42.805,6.029,13.2977,4.59991,2470.063,2020-3-16T10:23:18Z
2020-03-16T08:25:44Z,42.805,6.029,13.2976,4.60011,2470.1,2020-3-16T10:26:21Z
2020-03-16T08:28:47Z,42.805,6.029,13.2984,4.60006,2470.087,2020-3-16T10:29:24Z
2020-03-16T08:31:50Z,42.805,6.029,13.2977,4.59999,2470.077,2020-3-16T10:32:27Z
2020-03-16T08:34:54Z,42.805,6.029,13.2975,4.60003,2470.063,2020-3-16T10:35:31Z
2020-03-16T08:37:57Z,42.805,6.029,13.2975,4.60002,2470.087,2020-3-16T10:38:34Z
2020-03-16T08:41:00Z,42.805,6.029,13.2984,4.60003,2470.087,2020-3-16T10:41:37Z
2020-03-16T08:44:03Z,42.805,6.029,13.2978,4.59998,2470.087,2020-3-16T10:44:41Z
2020-03-16T08:47:07Z,42.805,6.029,13.2974,4.59998,2470.063,2020-3-16T10:47:44Z
2020-03-16T08:50:10Z,42.805,6.029,13.2973,4.59988,2470.087,2020-3-16T10:50:47Z
2020-03-16T08:53:13Z,42.805,6.029,13.2979,4.60001,2470.11,2020-3-16T10:53:50Z
2020-03-16T08:56:16Z,42.805,6.029,13.2981,4.60003,2470.1,2020-3-16T10:56:53Z
2020-03-16T08:59:19Z,42.805,6.029,13.2977,4.60010,2470.11,2020-3-16T10:59:57Z
2020-03-16T09:02:23Z,42.805,6.029,13.2979,4.60011,2470.147,2020-3-16T11:03:00Z
2020-03-16T09:05:26Z,42.805,6.029,13.2974,4.60010,2470.11,2020-3-16T11:06:03Z
2020-03-16T09:08:29Z,42.805,6.029,13.2979,4.59996,2470.124,2020-3-16T11:09:06Z
2020-03-16T09:11:32Z,42.805,6.029,13.2971,4.60000,2470.124,2020-3-16T11:12:10Z
2020-03-16T09:14:36Z,42.805,6.029,13.2976,4.60007,2470.1,2020-3-16T11:15:13Z
2020-03-16T09:17:39Z,42.805,6.029,13.2976,4.60003,2470.1,2020-3-16T11:18:16Z
2020-03-16T09:20:42Z,42.805,6.029,13.2986,4.60006,2470.11,2020-3-16T11:21:19Z
2020-03-16T09:23:45Z,42.805,6.029,13.2980,4.60006,2470.119,2020-3-16T11:24:22Z
2020-03-16T09:26:48Z,42.805,6.029,13.2979,4.60006,2470.124,2020-3-16T11:27:26Z
2020-03-16T09:29:52Z,42.805,6.029,13.2975,4.60009,2470.11,2020-3-16T11:30:29Z
2020-03-16T09:32:55Z,42.805,6.029,13.2976,4.60018,2470.11,2020-3-16T11:33:32Z
2020-03-16T09:35:58Z,42.805,6.029,13.2970,4.59991,2470.11,2020-3-16T11:36:35Z
2020-03-16T09:39:01Z,42.805,6.029,13.2974,4.59997,2470.147,2020-3-16T11:39:39Z
2020-03-16T09:42:05Z,42.805,6.029,13.2976,4.59999,2470.124,2020-3-16T11:42:42Z
2020-03-16T09:45:08Z,42.805,6.029,13.2975,4.59992,2470.156,2020-3-16T11:45:45Z
2020-03-16T09:48:11Z,42.805,6.029,13.2982,4.60007,2470.147,2020-3-16T11:48:48Z
2020-03-16T09:51:14Z,42.805,6.029,13.2983,4.59996,2470.133,2020-3-16T11:51:52Z
2020-03-16T09:54:18Z,42.805,6.029,13.2982,4.60017,2470.156,2020-3-16T11:54:55Z
2020-03-16T09:57:21Z,42.805,6.029,13.2974,4.60011,2470.133,2020-3-16T11:57:58Z
2020-03-16T10:00:24Z,42.805,6.029,13.2979,4.59982,2470.147,2020-3-16T12:01:01Z
2020-03-16T10:03:27Z,42.805,6.029,13.2987,4.60008,2470.11,2020-3-16T12:04:05Z
2020-03-16T10:06:31Z,42.805,6.029,13.2981,4.60006,2470.133,2020-3-16T12:07:08Z
2020-03-16T10:09:34Z,42.805,6.029,13.2979,4.60006,2470.133,2020-3-16T12:10:11Z
2020-03-16T10:12:37Z,42.805,6.029,13.2973,4.60000,2470.156,2020-3-16T12:13:14Z
2020-03-16T10:15:40Z,42.805,6.029,13.2981,4.60002,2470.171,2020-3-16T12:16:18Z
2020-03-16T10:18:44Z,42.805,6.029,13.2979,4.59990,2470.133,2020-3-16T12:19:21Z
2020-03-16T10:21:47Z,42.805,6.029,13.2975,4.59995,2470.133,2020-3-16T12:22:24Z
2020-03-16T10:24:50Z,42.805,6.029,13.2984,4.60005,2470.147,2020-3-16T12:25:27Z
2020-03-16T10:27:53Z,42.805,6.029,13.2980,4.60011,2470.147,2020-3-16T12:28:31Z
2020-03-16T10:30:57Z,42.805,6.029,13.2977,4.59998,2470.171,2020-3-16T12:31:34Z
2020-03-16T10:34:00Z,42.805,6.029,13.2978,4.60002,2470.133,2020-3-16T12:34:37Z
2020-03-16T10:37:03Z,42.805,6.029,13.2983,4.60016,2470.171,2020-3-16T12:37:40Z
2020-03-16T10:40:06Z,42.805,6.029,13.2979,4.60009,2470.133,2020-3-16T12:40:44Z
2020-03-16T10:43:10Z,42.805,6.029,13.2976,4.60016,2470.171,2020-3-16T12:43:47Z
2020-03-16T10:46:13Z,42.805,6.029,13.2977,4.60002,2470.156,2020-3-16T12:46:50Z
2020-03-16T10:49:16Z,42.805,6.029,13.2976,4.60009,2470.171,2020-3-16T12:49:54Z
2020-03-16T10:52:20Z,42.805,6.029,13.2974,4.60004,2470.171,2020-3-16T12:52:57Z
2020-03-16T10:55:23Z,42.805,6.029,13.2981,4.60001,2470.133,2020-3-16T12:56:00Z
2020-03-16T10:58:26Z,42.805,6.029,13.2975,4.59998,2470.194,2020-3-16T12:59:03Z
2020-03-16T11:01:29Z,42.805,6.029,13.2974,4.60003,2470.156,2020-3-16T13:02:07Z
2020-03-16T11:04:33Z,42.805,6.029,13.2980,4.60004,2470.147,2020-3-16T13:05:10Z
2020-03-16T11:07:36Z,42.805,6.029,13.2980,4.60016,2470.171,2020-3-16T13:08:13Z
2020-03-16T11:10:39Z,42.805,6.029,13.2983,4.59991,2470.133,2020-3-16T13:11:17Z
2020-03-16T11:13:43Z,42.805,6.029,13.2981,4.60015,2470.156,2020-3-16T13:14:20Z
2020-03-16T11:16:46Z,42.805,6.029,13.2986,4.60024,2470.11,2020-3-16T13:17:23Z
2020-03-16T11:19:49Z,42.805,6.029,13.2978,4.60016,2470.133,2020-3-16T13:20:26Z
2020-03-16T11:22:52Z,42.805,6.029,13.2977,4.59999,2470.156,2020-3-16T13:23:30Z
2020-03-16T11:25:56Z,42.805,6.029,13.2979,4.60003,2470.18,2020-3-16T13:26:33Z
2020-03-16T11:28:59Z,42.805,6.029,13.2978,4.59993,2470.171,2020-3-16T13:29:36Z
2020-03-16T11:32:02Z,42.805,6.029,13.2985,4.60020,2470.133,2020-3-16T13:32:40Z
2020-03-16T11:35:06Z,42.805,6.029,13.2979,4.60006,2470.133,2020-3-16T13:35:43Z
2020-03-16T11:38:09Z,42.805,6.029,13.2991,4.60019,2470.133,2020-3-16T13:38:46Z
2020-03-16T11:41:12Z,42.805,6.029,13.2983,4.60029,2470.171,2020-3-16T13:41:49Z
2020-03-16T11:44:15Z,42.805,6.029,13.3003,4.60039,2470.156,2020-3-16T13:44:53Z
2020-03-16T11:47:19Z,42.805,6.029,13.2983,4.60028,2470.171,2020-3-16T13:47:56Z
2020-03-16T11:50:22Z,42.805,6.029,13.3004,4.60006,2470.156,2020-3-16T13:50:59Z
2020-03-16T11:53:25Z,42.805,6.029,13.2974,4.60011,2470.171,2020-3-16T13:54:02Z
2020-03-16T11:56:28Z,42.805,6.029,13.2982,4.60025,2470.156,2020-3-16T13:57:06Z
2020-03-16T11:59:32Z,42.805,6.029,13.2990,4.60019,2470.194,2020-3-16T14:00:09Z
2020-03-16T12:02:35Z,42.805,6.029,13.2990,4.60026,2470.156,2020-3-16T14:03:12Z
2020-03-16T12:05:38Z,42.805,6.029,13.2991,4.60035,2470.171,2020-3-16T14:06:15Z
2020-03-16T12:08:41Z,42.805,6.029,13.2996,4.60019,2470.133,2020-3-16T14:09:19Z
2020-03-16T12:11:45Z,42.805,6.029,13.2983,4.60016,2470.156,2020-3-16T14:12:22Z
2020-03-16T12:14:48Z,42.805,6.029,13.2978,4.60024,2470.171,2020-3-16T14:15:25Z
2020-03-16T12:17:51Z,42.805,6.029,13.2977,4.59999,2470.147,2020-3-16T14:18:28Z
2020-03-16T12:20:54Z,42.805,6.029,13.2977,4.60002,2470.147,2020-3-16T14:21:32Z
2020-03-16T12:23:58Z,42.805,6.029,13.2975,4.59994,2470.143,2020-3-16T14:24:35Z
2020-03-16T12:27:01Z,42.805,6.029,13.2976,4.60014,2470.133,2020-3-16T14:27:38Z
2020-03-16T12:30:04Z,42.805,6.029,13.2981,4.59995,2470.133,2020-3-16T14:30:41Z
2020-03-16T12:33:07Z,42.805,6.029,13.2980,4.60009,2470.124,2020-3-16T14:33:45Z
2020-03-16T12:36:10Z,42.805,6.029,13.2979,4.60015,2470.133,2020-3-16T14:36:48Z
2020-03-16T12:39:14Z,42.805,6.029,13.2996,4.60020,2470.156,2020-3-16T14:39:51Z
2020-03-16T12:42:17Z,42.805,6.029,13.2995,4.60032,2470.11,2020-3-16T14:42:54Z
2020-03-16T12:45:20Z,42.805,6.029,13.3004,4.60021,2470.11,2020-3-16T14:45:58Z
2020-03-16T12:48:24Z,42.805,6.029,13.2988,4.60001,2470.147,2020-3-16T14:49:01Z
2020-03-16T12:51:27Z,42.805,6.029,13.2981,4.59999,2470.156,2020-3-16T14:52:04Z
2020-03-16T12:54:30Z,42.805,6.029,13.2982,4.59996,2470.133,2020-3-16T14:55:07Z
2020-03-16T12:57:33Z,42.805,6.029,13.2989,4.60009,2470.147,2020-3-16T14:58:11Z
2020-03-16T13:00:37Z,42.805,6.029,13.2981,4.59999,2470.171,2020-3-16T15:01:14Z
2020-03-16T13:03:40Z,42.805,6.029,13.2981,4.60000,2470.147,2020-3-16T15:04:17Z
2020-03-16T13:06:43Z,42.805,6.029,13.2971,4.60021,2470.11,2020-3-16T15:07:20Z
2020-03-16T13:09:46Z,42.805,6.029,13.2984,4.60016,2470.156,2020-3-16T15:10:24Z
2020-03-16T13:12:50Z,42.805,6.029,13.2975,4.60012,2470.147,2020-3-16T15:13:27Z
2020-03-16T13:15:53Z,42.805,6.029,13.2979,4.60033,2470.124,2020-3-16T15:16:30Z
2020-03-16T13:18:56Z,42.805,6.029,13.2984,4.60035,2470.147,2020-3-16T15:19:33Z
2020-03-16T13:21:59Z,42.805,6.029,13.2985,4.60023,2470.133,2020-3-16T15:22:37Z
2020-03-16T13:25:03Z,42.805,6.029,13.2982,4.60029,2470.133,2020-3-16T15:25:40Z
2020-03-16T13:28:06Z,42.805,6.029,13.2993,4.60022,2470.124,2020-3-16T15:28:43Z
2020-03-16T13:31:09Z,42.805,6.029,13.2975,4.60001,2470.133,2020-3-16T15:31:47Z
2020-03-16T13:34:13Z,42.805,6.029,13.2974,4.60003,2470.11,2020-3-16T15:34:50Z
2020-03-16T13:37:16Z,42.805,6.029,13.2988,4.60005,2470.133,2020-3-16T15:37:53Z
2020-03-16T13:40:19Z,42.805,6.029,13.2979,4.60031,2470.087,2020-3-16T15:40:56Z
2020-03-16T13:43:22Z,42.805,6.029,13.2986,4.60011,2470.133,2020-3-16T15:44:00Z
2020-03-16T13:46:26Z,42.805,6.029,13.2976,4.60018,2470.147,2020-3-16T15:47:03Z
2020-03-16T13:49:29Z,42.805,6.029,13.2981,4.60014,2470.171,2020-3-16T15:50:06Z
2020-03-16T13:52:32Z,42.805,6.029,13.2983,4.60007,2470.156,2020-3-16T15:53:09Z
2020-03-16T13:55:35Z,42.805,6.029,13.2991,4.60028,2470.11,2020-3-16T15:56:13Z
2020-03-16T13:58:39Z,42.805,6.029,13.2974,4.60014,2470.147,2020-3-16T15:59:16Z
2020-03-16T14:01:42Z,42.805,6.029,13.2979,4.60000,2470.124,2020-3-16T16:02:19Z
2020-03-16T14:04:45Z,42.805,6.029,13.2991,4.60016,2470.133,2020-3-16T16:05:22Z
2020-03-16T14:07:48Z,42.805,6.029,13.2984,4.60005,2470.124,2020-3-16T16:08:26Z
2020-03-16T14:10:52Z,42.805,6.029,13.2983,4.60024,2470.124,2020-3-16T16:11:29Z
2020-03-16T14:13:55Z,42.805,6.029,13.2994,4.60020,2470.11,2020-3-16T16:14:32Z
2020-03-16T14:16:58Z,42.805,6.029,13.2982,4.60003,2470.11,2020-3-16T16:17:35Z
2020-03-16T14:20:01Z,42.805,6.029,13.2990,4.60008,2470.124,2020-3-16T16:20:39Z
2020-03-16T14:23:05Z,42.805,6.029,13.2988,4.60034,2470.124,2020-3-16T16:23:42Z
2020-03-16T14:26:08Z,42.805,6.029,13.2983,4.60030,2470.11,2020-3-16T16:26:45Z
2020-03-16T14:29:11Z,42.805,6.029,13.2989,4.60014,2470.147,2020-3-16T16:29:48Z
2020-03-16T14:32:14Z,42.805,6.029,13.2985,4.60026,2470.11,2020-3-16T16:32:52Z
2020-03-16T14:35:18Z,42.805,6.029,13.2982,4.60033,2470.147,2020-3-16T16:35:55Z
2020-03-16T14:38:21Z,42.805,6.029,13.3004,4.59745,2470.1,2020-3-16T16:38:58Z
2020-03-16T14:41:24Z,42.805,6.029,13.2983,4.60006,2470.1,2020-3-16T16:42:02Z
2020-03-16T14:44:28Z,42.805,6.029,13.2974,4.60019,2470.147,2020-3-16T16:45:05Z
2020-03-16T14:47:31Z,42.805,6.029,13.2981,4.60007,2470.124,2020-3-16T16:48:08Z
2020-03-16T14:50:34Z,42.805,6.029,13.2981,4.60004,2470.147,2020-3-16T16:51:11Z
2020-03-16T14:53:38Z,42.805,6.029,13.2979,4.59999,2470.11,2020-3-16T16:54:15Z
2020-03-16T14:56:41Z,42.805,6.029,13.2983,4.60032,2470.124,2020-3-16T16:57:18Z
2020-03-16T14:59:44Z,42.805,6.029,13.2990,4.60011,2470.133,2020-3-16T17:00:21Z
2020-03-16T15:02:47Z,42.805,6.029,13.2994,4.60019,2470.124,2020-3-16T17:03:24Z
2020-03-16T15:05:50Z,42.805,6.029,13.2991,4.60016,2470.133,2020-3-16T17:06:28Z
2020-03-16T15:08:54Z,42.805,6.029,13.2982,4.60009,2470.087,2020-3-16T17:09:31Z
2020-03-16T15:11:57Z,42.805,6.029,13.2983,4.60019,2470.133,2020-3-16T17:12:34Z
2020-03-16T15:15:00Z,42.805,6.029,13.2983,4.60006,2470.11,2020-3-16T17:15:37Z